Location: Mascot Post Office (historical)
(40.2645°N, 99.5462°W)
Time: 02:44:55
(UTC+00:00)

Cosmos-2242 - Pass Details

Date: 14 July 2020
Orbit: 592 x 616 km, 82.5° (Epoch: 14 August)

Event Time Altitude Azimuth Distance (km) Brightness Sun altitude
Rises 03:21:02 0° 343° (NNW) 2,884 7.6 -12.2°
Reaches altitude 10° 03:23:22 10° 335° (NNW) 1,978 6.8 -12.5°
Maximum altitude 03:27:24 37° 269° (W) 961 4.5 -13.0°
Drops below altitude 10° 03:31:25 10° 202° (SSW) 1,971 5.4 -13.6°
Enters shadow 03:33:17 - 195° (SSW) 2,688 6.0 -13.8°
